H1 CPF 2 NER 2024 7 22 9 204 01 glonass133 H2 1403201 9133 40001 2024 7 22 0 0 0 2024 7 25 23 45 0 900 1 1 0 0 0 1 H9 10 0 60513 0.00000 0 16481261.072 1383367.246 -19436192.892 10 0 60513 900.00000 0 18416242.762 2592878.337 -17479181.675 10 0 60513 1800.00000 0 20213199.741 3517928.996 -15183251.487 10 0 60513 2700.00000 0 21808180.700 4166892.339 -12592956.014 10 0 60513 3600.00000 0 23142185.777 4560395.083 -9758536.397 10 0 60513 4500.00000 0 24163590.994 4730193.182 -6734951.059 10 0 60513 5400.00000 0 24830283.712 4717580.779 -3580815.127 10 0 60513 6300.00000 0 25111420.158 4571400.136 -357269.571 10 0 60513 7200.00000 0 24988731.688 4345736.821 2873198.418 10 0 60513 8100.00000 0 24457325.124 4097397.564 6047961.265 10 0 60513 9000.00000 0 23525943.453 3883277.254 9105460.032 10 0 60513 9900.00000 0 22216675.593 3757726.243 11986393.394 10 0 60513 10800.00000 0 20564126.785 3770029.113 14634863.814 10 0 60513 11700.00000 0 18614083.568 3962101.445 16999458.979 10 0 60513 12600.00000 0 16421728.269 4366502.133 19034247.756 10 0 60513 13500.00000 0 14049476.612 5004845.588 20699671.640 10 0 60513 14400.00000 0 11564527.664 5886681.680 21963314.620 10 0 60513 15300.00000 0 9036227.284 7008891.749 22800536.615 10 0 60513 16200.00000 0 6533354.011 8355627.628 23194958.146 10 0 60513 17100.00000 0 4121439.576 9898797.997 23138786.634 10 0 60513 18000.00000 0 1860235.001 11599083.553 22632977.494 10 0 60513 18900.00000 0 -198572.702 13407440.276 21687226.247 10 0 60513 19800.00000 0 -2013298.452 15267029.516 20319790.945 10 0 60513 20700.00000 0 -3553770.959 17115495.408 18557147.386 10 0 60513 21600.00000 0 -4802355.606 18887495.139 16433482.840 10 0 60513 22500.00000 0 -5754445.686 20517376.517 13990037.230 10 0 60513 23400.00000 0 -6418401.727 21941890.469 11274303.895 10 0 60513 24300.00000 0 -6814941.874 23102824.143 8339105.122 10 0 60513 25200.00000 0 -6976009.703 23949443.177 5241560.382 10 0 60513 26100.00000 0 -6943168.130 24440639.380 2041967.780 10 0 60513 27000.00000 0 -6765588.481 24546692.361 -1197378.778 10 0 60513 27900.00000 0 -6497721.149 24250569.989 -4413412.646 10 0 60513 28800.00000 0 -6196748.016 23548712.128 -7543532.659 10 0 60513 29700.00000 0 -5919926.090 22451264.271 -10526831.183 10 0 60513 30600.00000 0 -5721936.359 20981751.142 -13305286.941 10 0 60513 31500.00000 0 -5652351.430 19176204.267 -15824898.513 10 0 60513 32400.00000 0 -5753330.089 17081780.669 -18036735.876 10 0 60513 33300.00000 0 -6057636.964 14754931.256 -19897889.446 10 0 60513 34200.00000 0 -6587071.230 12259196.247 -21372298.375 10 0 60513 35100.00000 0 -7351370.716 9662720.308 -22431442.674 10 0 60513 36000.00000 0 -8347637.389 7035591.300 -23054886.613 10 0 60513 36900.00000 0 -9560308.162 4447113.486 -23230663.931 10 0 60513 37800.00000 0 -10961671.968 1963128.111 -22955498.487 10 0 60513 38700.00000 0 -12512911.309 -356508.129 -22234857.112 10 0 60513 39600.00000 0 -14165624.609 -2460183.222 -21082834.490 10 0 60513 40500.00000 0 -15863765.847 -4306436.261 -19521872.901 10 0 60513 41400.00000 0 -17545920.697 -5865432.676 -17582322.571 10 0 60513 42300.00000 0 -19147824.476 -7119948.779 -15301851.226 10 0 60513 43200.00000 0 -20605017.176 -8065826.479 -12724714.107 10 0 60513 44100.00000 0 -21855525.168 -8711880.963 -9900898.241 10 0 60513 45000.00000 0 -22842457.901 -9079266.768 -6885157.146 10 0 60513 45900.00000 0 -23516411.376 -9200330.103 -3735954.201 10 0 60513 46800.00000 0 -23837578.068 -9116996.614 -514334.694 10 0 60513 47700.00000 0 -23777474.996 -8878763.067 2717251.943 10 0 60513 48600.00000 0 -23320217.488 -8540377.940 5896157.245 10 0 60513 49500.00000 0 -22463284.948 -8159308.873 8960743.108 10 0 60513 50400.00000 0 -21217746.021 -7793103.826 11851572.249 10 0 60513 51300.00000 0 -19607933.018 -7496757.267 14512556.937 10 0 60513 52200.00000 0 -17670578.283 -7320192.454 16892043.994 10 0 60513 53100.00000 0 -15453447.543 -7305966.145 18943815.280 10 0 60513 54000.00000 0 -13013526.135 -7487292.716 20627984.547 10 0 60513 54900.00000 0 -10414832.493 -7886471.501 21911773.495 10 0 60513 55800.00000 0 -7725948.816 -8513784.343 22770152.077 10 0 60513 56700.00000 0 -5017370.541 -9366910.857 23186330.617 10 0 60513 57600.00000 0 -2358783.844 -10430887.361 23152093.977 10 0 60513 58500.00000 0 183616.410 -11678612.758 22667970.826 10 0 60513 59400.00000 0 2549657.388 -13071881.785 21743234.073 10 0 60513 60300.00000 0 4687462.846 -14562903.862 20395731.586 10 0 60513 61200.00000 0 6555377.010 -16096245.163 18651549.532 10 0 60513 62100.00000 0 8123457.761 -17611113.451 16544513.868 10 0 60513 63000.00000 0 9374476.864 -19043890.370 14115538.767 10 0 60513 63900.00000 0 10304385.556 -20330804.909 11411833.953 10 0 60513 64800.00000 0 10922226.310 -21410635.291 8485985.977 10 0 60513 65700.00000 0 11249495.029 -22227324.867 5394931.234 10 0 60513 66600.00000 0 11318981.331 -22732400.787 2198841.118 10 0 60513 67500.00000 0 11173136.934 -22887092.350 -1040058.264 10 0 60513 68400.00000 0 10862042.391 -22664058.524 -4258707.851 10 0 60513 69300.00000 0 10441059.671 -22048650.785 -7394453.795 10 0 60513 70200.00000 0 9968271.515 -21039657.208 -10386276.710 10 0 60513 71100.00000 0 9501817.474 -19649496.036 -13175986.923 10 0 60513 72000.00000 0 9097240.785 -17903850.412 -15709361.500 10 0 60513 72900.00000 0 8804959.398 -15840759.796 -17937200.372 10 0 60513 73800.00000 0 8667968.808 -13509206.530 -19816280.861 10 0 60513 74700.00000 0 8719874.081 -10967257.205 -21310192.246 10 0 60513 75600.00000 0 8983334.082 -8279836.929 -22390034.792 10 0 60513 76500.00000 0 9468983.172 -5516229.578 -23034970.592 10 0 60513 77400.00000 0 10174875.280 -2747408.143 -23232616.543 10 0 60513 78300.00000 0 11086473.159 -43305.860 -22979273.024 10 0 60513 79200.00000 0 12177182.787 2529859.295 -22279984.834 10 0 60513 80100.00000 0 13409410.105 4912096.669 -21148434.106 10 0 60513 81000.00000 0 14736095.621 7051888.705 -19606667.875 10 0 60513 81900.00000 0 16102662.596 8908078.787 -17684665.919 10 0 60513 82800.00000 0 17449297.410 10451324.460 -15419757.336 10 0 60513 83700.00000 0 18713466.951 11665057.360 -12855896.978 10 0 60513 84600.00000 0 19832567.987 12545911.637 -10042815.449 10 0 60513 85500.00000 0 20746597.940 13103604.576 -7035058.699 10 0 60514 0.00000 0 21400735.444 13360275.829 -3890935.682 10 0 60514 900.00000 0 21747723.024 13349314.177 -671392.258 10 0 60514 1800.00000 0 21749951.240 13113721.673 2561162.925 10 0 60514 2700.00000 0 21381157.912 12704084.945 5744063.810 10 0 60514 3600.00000 0 20627669.869 12176238.981 8815596.329 10 0 60514 4500.00000 0 19489134.950 11588722.102 11716190.256 10 0 60514 5400.00000 0 17978712.692 11000129.296 14389570.430 10 0 60514 6300.00000 0 16122714.657 10466475.381 16783845.289 10 0 60514 7200.00000 0 13959708.200 10038679.036 18852511.861 10 0 60514 8100.00000 0 11539119.739 9760273.702 20555358.015 10 0 60514 9000.00000 0 8919394.291 9665441.943 21859244.689 10 0 60514 9900.00000 0 6165786.556 9777456.398 22738753.045 10 0 60514 10800.00000 0 3347874.022 10107593.566 23176683.987 10 0 60514 11700.00000 0 536894.246 10654567.043 23164400.162 10 0 60514 12600.00000 0 -2196984.051 11404505.152 22702003.346 10 0 60514 13500.00000 0 -4787343.535 12331475.248 21798343.159 10 0 60514 14400.00000 0 -7174043.517 13398533.968 20470856.063 10 0 60514 15300.00000 0 -9305483.182 14559260.585 18745236.836 10 0 60514 16200.00000 0 -11140508.707 15759710.001 16654947.870 10 0 60514 17100.00000 0 -12649884.777 16940703.971 14240574.932 10 0 60514 18000.00000 0 -13817269.015 18040364.353 11549041.171 10 0 60514 18900.00000 0 -14639648.683 18996781.540 8632694.245 10 0 60514 19800.00000 0 -15127221.659 19750704.951 5548284.225 10 0 60514 20700.00000 0 -15302727.252 20248141.135 2355852.549 10 0 60514 21600.00000 0 -15200255.944 20442748.620 -882445.657 10 0 60514 22500.00000 0 -14863589.418 20297927.077 -4103561.972 10 0 60514 23400.00000 0 -14344142.397 19788511.386 -7244792.742 10 0 60514 24300.00000 0 -13698594.841 18901997.963 -10245009.485 10 0 60514 25200.00000 0 -12986316.187 17639250.898 -13045856.496 10 0 60514 26100.00000 0 -12266692.012 16014657.591 -15592891.385 10 0 60514 27000.00000 0 -11596467.328 14055727.199 -17836645.744 10 0 60514 27900.00000 0 -11027219.590 11802148.760 -19733585.148 10 0 60514 28800.00000 0 -10603068.522 9304348.702 -21246950.011 10 0 60514 29700.00000 0 -10358719.331 6621608.282 -22347461.542 10 0 60514 30600.00000 0 -10317921.399 3819819.701 -23013880.030 10 0 60514 31500.00000 0 -10492406.629 968974.375 -23233405.624 10 0 60514 32400.00000 0 -10881351.267 -1859512.450 -23001915.010 10 0 60514 33300.00000 0 -11471382.941 -4595530.189 -22324030.439 10 0 60514 34200.00000 0 -12237131.809 -7172942.154 -21213020.641 10 0 60514 35100.00000 0 -13142302.095 -9532085.944 -19690536.221 10 0 60514 36000.00000 0 -14141218.643 -11622002.726 -17786185.001 10 0 60514 36900.00000 0 -15180783.476 -13402304.341 -15536955.640 10 0 60514 37800.00000 0 -16202760.319 -14844602.344 -12986500.545 10 0 60514 38700.00000 0 -17146291.461 -15933441.153 -10184291.646 10 0 60514 39600.00000 0 -17950541.596 -16666697.919 -7184664.952 10 0 60514 40500.00000 0 -18557357.937 -17055433.861 -4045771.964 10 0 60514 41400.00000 0 -18913835.116 -17123204.455 -828457.751 10 0 60514 42300.00000 0 -18974677.218 -16904858.315 2404912.893 10 0 60514 43200.00000 0 -18704257.597 -16444875.868 5591658.855 10 0 60514 44100.00000 0 -18078289.653 -15795318.033 8669992.632 10 0 60514 45000.00000 0 -17085037.834 -15013471.384 11580213.561 10 0 60514 45900.00000 0 -15726017.199 -14159288.873 14265861.482 10 0 60514 46800.00000 0 -14016151.107 -13292733.721 16674808.761 10 0 60514 47700.00000 0 -11983379.122 -12471138.085 18760269.723 10 0 60514 48600.00000 0 -9667729.968 -11746687.464 20481708.230 10 0 60514 49500.00000 0 -7119896.576 -11164136.586 21805626.035 10 0 60514 50400.00000 0 -4399370.957 -10758852.869 22706216.749 10 0 60514 51300.00000 0 -1572214.861 -10555269.986 23165872.742 10 0 60514 52200.00000 0 1291442.584 -10565816.967 23175534.968 10 0 60514 53100.00000 0 4120077.570 -10790368.591 22734878.487 10 0 60514 54000.00000 0 6843504.650 -11216240.993 21852329.463 10 0 60514 54900.00000 0 9395557.334 -11818733.731 20544912.467 10 0 60514 55800.00000 0 11716605.207 -12562196.462 18837930.063 10 0 60514 56700.00000 0 13755802.989 -13401576.251 16764479.928 10 0 60514 57600.00000 0 15472977.826 -14284381.018 14364817.908 10 0 60514 58500.00000 0 16840075.856 -15152976.677 11685578.689 10 0 60514 59400.00000 0 17842107.514 -15947120.991 8778868.763 10 0 60514 60300.00000 0 18477551.980 -16606626.710 5701249.254 10 0 60514 61200.00000 0 18758204.087 -17074040.588 2512628.717 10 0 60514 62100.00000 0 18708470.707 -17297223.895 -724911.844 10 0 60514 63000.00000 0 18364147.181 -17231724.007 -3948337.882 10 0 60514 63900.00000 0 17770726.595 -16842835.417 -7094899.167 10 0 60514 64800.00000 0 16981314.702 -16107261.814 -10103361.239 10 0 60514 65700.00000 0 16054240.068 -15014307.962 -12915205.297 10 0 60514 66600.00000 0 15050461.872 -13566550.305 -15475772.183 10 0 60514 67500.00000 0 14030886.106 -11779957.567 -17735327.568 10 0 60514 68400.00000 0 13053704.404 -9683455.995 -19650027.400 10 0 60514 69300.00000 0 12171868.300 -7317957.475 -21182765.015 10 0 60514 70200.00000 0 11430805.413 -4734891.248 -22303884.008 10 0 60514 71100.00000 0 10866473.322 -1994300.609 -22991743.933 10 0 60514 72000.00000 0 10503832.265 837416.070 -23233128.876 10 0 60514 72900.00000 0 10355799.767 3690026.240 -23023492.135 10 0 60514 73800.00000 0 10422729.969 6492141.712 -22367033.332 10 0 60514 74700.00000 0 10692438.279 9173944.347 -21276607.357 10 0 60514 75600.00000 0 11140769.262 11669846.795 -19773467.591 10 0 60514 76500.00000 0 11732683.070 13920979.140 -17886848.748 10 0 60514 77400.00000 0 12423814.186 15877399.549 -15653397.537 10 0 60514 78300.00000 0 13162436.695 17499938.597 -13116462.049 10 0 60514 79200.00000 0 13891753.441 18761602.018 -10325253.300 10 0 60514 80100.00000 0 14552412.913 19648474.878 -7333894.769 10 0 60514 81000.00000 0 15085148.225 20160090.738 -4200377.892 10 0 60514 81900.00000 0 15433427.368 20309251.541 -985443.250 10 0 60514 82800.00000 0 15546003.337 20121306.641 2248591.213 10 0 60514 83700.00000 0 15379256.819 19632921.897 5439032.636 10 0 60514 84600.00000 0 14899232.629 18890390.926 8524023.309 10 0 60514 85500.00000 0 14083283.792 17947559.612 11443735.196 10 0 60515 0.00000 0 12921253.523 16863451.223 14141525.752 10 0 60515 900.00000 0 11416143.743 15699691.177 16565034.326 10 0 60515 1800.00000 0 9584242.384 14517840.893 18667194.568 10 0 60515 2700.00000 0 7454700.512 13376750.528 20407148.316 10 0 60515 3600.00000 0 5068576.633 12330042.931 21751039.809 10 0 60515 4500.00000 0 2477385.645 11423833.692 22672676.441 10 0 60515 5400.00000 0 -258788.878 10694783.045 23154043.017 10 0 60515 6300.00000 0 -3073542.300 10168561.461 23185659.355 10 0 60515 7200.00000 0 -5896664.535 9858793.659 22766773.886 10 0 60515 8100.00000 0 -8656820.396 9766525.835 21905388.904 10 0 60515 9000.00000 0 -11284284.288 9880239.075 20618116.117 10 0 60515 9900.00000 0 -13713616.114 10176409.087 18929864.361 10 0 60515 10800.00000 0 -15886167.319 10620589.294 16873364.550 10 0 60515 11700.00000 0 -17752312.651 11168972.197 14488540.098 10 0 60515 12600.00000 0 -19273314.301 11770363.418 11821734.343 10 0 60515 13500.00000 0 -20422740.180 12368485.015 8924809.472 10 0 60515 14400.00000 0 -21187376.759 12904510.358 5854134.372 10 0 60515 15300.00000 0 -21567598.081 13319722.551 2669481.385 10 0 60515 16200.00000 0 -21577175.664 13558182.820 -567145.892 10 0 60515 17100.00000 0 -21242537.873 13569294.600 -3792729.981 10 0 60515 18000.00000 0 -20601510.814 13310153.361 -6944477.118 10 0 60515 18900.00000 0 -19701595.088 12747581.341 -9961049.709 10 0 60515 19800.00000 0 -18597852.416 11859759.913 -12783768.470 10 0 60515 20700.00000 0 -17350492.789 10637389.628 -15357759.795 10 0 60515 21600.00000 0 -16022265.204 9084328.241 -17633025.405 10 0 60515 22500.00000 0 -14675763.058 7217679.408 -19565413.207 10 0 60515 23400.00000 0 -13370758.408 5067328.049 -21117470.632 10 0 60515 24300.00000 0 -12161677.481 2674941.751 -22259164.414 10 0 60515 25200.00000 0 -11095323.318 92479.919 -22968453.725 10 0 60515 26100.00000 0 -10208940.484 -2619727.187 -23231706.551 10 0 60515 27000.00000 0 -9528701.964 -5395249.702 -23043952.409 10 0 60515 27900.00000 0 -9068680.352 -8164085.635 -22408967.565 10 0 60515 28800.00000 0 -8830344.976 -10855340.149 -21339192.018 10 0 60515 29700.00000 0 -8802604.597 -13399946.237 -19855480.581 10 0 60515 30600.00000 0 -8962392.527 -15733314.896 -17986693.244 10 0 60515 31500.00000 0 -9275768.558 -17797805.934 -15769132.930 10 0 60515 32400.00000 0 -9699490.609 -19544918.012 -13245841.394 10 0 60515 33300.00000 0 -10182989.546 -20937108.155 -10465766.591 10 0 60515 34200.00000 0 -10670663.896 -21949166.201 -7482817.256 10 0 60515 35100.00000 0 -11104397.830 -22569088.012 -4354822.513 10 0 60515 36000.00000 0 -11426196.469 -22798412.012 -1142416.211 10 0 60515 36900.00000 0 -11580827.593 -22652005.759 2092132.810 10 0 60515 37800.00000 0 -11518358.462 -22157312.105 5286122.169 10 0 60515 38700.00000 0 -11196480.755 -21353086.934 8377626.194 10 0 60515 39600.00000 0 -10582525.360 -20287681.573 11306691.708 10 0 60515 40500.00000 0 -9655081.623 -19016941.951 14016496.436 10 0 60515 41400.00000 0 -8405152.033 -17601812.434 16454447.869 10 0 60515 42300.00000 0 -6836792.646 -16105744.602 18573201.504 10 0 60515 43200.00000 0 -4967210.883 -14592019.235 20331578.996 10 0 60515 44100.00000 0 -2826314.804 -13121093.379 21695368.702 10 0 60515 45000.00000 0 -455730.795 -11748083.303 22637993.179 10 0 60515 45900.00000 0 2092671.366 -10520488.505 23141030.773 10 0 60515 46800.00000 0 4758686.590 -9476251.925 23194580.988 10 0 60515 47700.00000 0 7476038.059 -8642237.626 22797466.172 10 0 60515 48600.00000 0 10174903.722 -8033189.862 21957265.000 10 0 60515 49500.00000 0 12784601.826 -7651217.439 20690176.284 10 0 60515 50400.00000 0 15236324.564 -7485825.367 19020714.798 10 0 60515 51300.00000 0 17465806.449 -7514492.803 16981244.025 10 0 60515 52200.00000 0 19415816.269 -7703773.244 14611353.925 10 0 60515 53100.00000 0 21038368.332 -8010870.712 11957095.061 10 0 60515 54000.00000 0 22296560.170 -8385625.254 9070083.464 10 0 60515 54900.00000 0 23165959.282 -8772823.441 6006493.495 10 0 60515 55800.00000 0 23635480.363 -9114735.350 2825958.587 10 0 60515 56700.00000 0 23707716.016 -9353769.551 -409598.101 10 0 60515 57600.00000 0 23398707.212 -9435132.352 -3637179.424 10 0 60515 58500.00000 0 22737163.639 -9309377.208 -6793951.453 10 0 60515 59400.00000 0 21763167.662 -8934734.840 -9818476.811 10 0 60515 60300.00000 0 20526417.640 -8279124.102 -12651918.935 10 0 60515 61200.00000 0 19084085.882 -7321757.361 -15239192.756 10 0 60515 62100.00000 0 17498382.804 -6054271.701 -17530038.761 10 0 60515 63000.00000 0 15833930.902 -4481337.575 -19479999.226 10 0 60515 63900.00000 0 14155059.876 -2620718.894 -21051277.769 10 0 60515 64800.00000 0 12523136.917 -502781.798 -22213466.031 10 0 60515 65700.00000 0 10994044.148 1830527.484 -22944124.223 10 0 60515 66600.00000 0 9615908.427 4327193.030 -23229205.309 10 0 60515 67500.00000 0 8427177.575 6927065.086 -23063315.728 10 0 60515 68400.00000 0 7455122.186 9564141.057 -22449808.708 10 0 60515 69300.00000 0 6714824.104 12169097.244 -21400709.301 10 0 60515 70200.00000 0 6208692.163 14671966.756 -19936473.293 10 0 60515 71100.00000 0 5926523.777 17004853.221 -18085585.106 10 0 60515 72000.00000 0 5846108.282 19104568.482 -15884002.611 10 0 60515 72900.00000 0 5934345.428 20915085.740 -13374459.555 10 0 60515 73800.00000 0 6148831.117 22389707.165 -10605638.755 10 0 60515 74700.00000 0 6439843.063 23492856.760 -7631231.717 10 0 60515 75600.00000 0 6752642.454 24201424.698 -4508902.424 10 0 60515 76500.00000 0 7029994.537 24505607.850 -1299174.850 10 0 60515 77400.00000 0 7214801.850 24409212.038 1935734.587 10 0 60515 78300.00000 0 7252739.098 23929403.833 5133117.420 10 0 60515 79200.00000 0 7094778.502 23095922.584 8230983.424 10 0 60515 80100.00000 0 6699498.949 21949785.760 11169257.572 10 0 60515 81000.00000 0 6035081.213 20541541.740 13890940.731 10 0 60515 81900.00000 0 5080904.534 18929143.007 16343211.875 10 0 60515 82800.00000 0 3828676.374 17175528.433 18478450.654 10 0 60515 83700.00000 0 2283046.593 15346015.412 20255160.815 10 0 60515 84600.00000 0 461678.599 13505610.450 21638776.777 10 0 60515 85500.00000 0 -1605227.334 11716350.187 22602337.875 10 0 60516 0.00000 0 -3875940.495 10034783.721 23127017.212 10 0 60516 900.00000 0 -6298697.208 8509700.204 23202494.912 10 0 60516 1800.00000 0 -8813625.819 7180198.685 22827167.546 10 0 60516 2700.00000 0 -11355024.791 6074177.807 22008190.041 10 0 60516 3600.00000 0 -13853897.496 5207310.788 20761347.635 10 0 60516 4500.00000 0 -16240640.371 4582547.835 19110759.792 10 0 60516 5400.00000 0 -18447772.797 4190167.053 17088420.760 10 0 60516 6300.00000 0 -20412595.063 4008371.819 14733584.711 10 0 60516 7200.00000 0 -22079663.165 4004409.386 12092006.652 10 0 60516 8100.00000 0 -23402976.492 4136163.330 9215053.317 10 0 60516 9000.00000 0 -24347786.110 4354152.075 6158701.168 10 0 60516 9900.00000 0 -24891947.147 4603848.238 2982441.226 10 0 60516 10800.00000 0 -25026757.940 4828219.526 -251887.327 10 0 60516 11700.00000 0 -24757250.405 4970382.286 -3481311.164 10 0 60516 12600.00000 0 -24101919.472 4976253.763 -6642959.560 10 0 60516 13500.00000 0 -23091903.417 4797089.211 -9675298.566 10 0 60516 14400.00000 0 -21769650.384 4391794.908 -12519337.326 10 0 60516 15300.00000 0 -20187128.277 3728917.927 -15119782.018 10 0 60516 16200.00000 0 -18403654.503 2788227.503 -17426114.239 10 0 60516 17100.00000 0 -16483437.903 1561820.447 -19393572.553 10 0 60516 18000.00000 0 -14492937.041 54703.564 -20984018.195 10 0 60516 18900.00000 0 -12498146.227 -1715171.759 -22166668.606 10 0 60516 19800.00000 0 -10561923.108 -3717424.390 -22918685.392 10 0 60516 20700.00000 0 -8741469.314 -5910286.267 -23225606.321 10 0 60516 21600.00000 0 -7086068.654 -8242129.738 -23081614.105 10 0 60516 22500.00000 0 -5635176.037 -10653415.932 -22489637.865 10 0 60516 23400.00000 0 -4416935.386 -13078983.348 -21461286.263 10 0 60516 24300.00000 0 -3447186.554 -15450581.893 -20016614.330 10 0 60516 25200.00000 0 -2729000.890 -17699547.684 -18183728.938 10 0 60516 26100.00000 0 -2252763.015 -19759508.083 -15998240.764 10 0 60516 27000.00000 0 -1996793.734 -21569005.338 -13502573.280 10 0 60516 27900.00000 0 -1928486.591 -23073930.524 -10745141.831 10 0 60516 28800.00000 0 -2005909.272 -24229667.182 -7779418.368 10 0 60516 29700.00000 0 -2179801.809 -25002856.102 -4662899.420 10 0 60516 30600.00000 0 -2395887.002 -25372708.195 -1455996.847 10 0 60516 31500.00000 0 -2597395.490 -25331811.073 1779127.538 10 0 60516 32400.00000 0 -2727698.911 -24886395.951 4979761.297 10 0 60516 33300.00000 0 -2732940.008 -24056053.766 8083851.696 10 0 60516 34200.00000 0 -2564548.655 -22872912.391 11031203.846 10 0 60516 35100.00000 0 -2181537.400 -21380309.094 13764643.669 10 0 60516 36000.00000 0 -1552479.337 -19631013.447 16231123.434 10 0 60516 36900.00000 0 -657084.254 -17685074.492 18382748.638 10 0 60516 37800.00000 0 512694.295 -15607381.592 20177706.631 10 0 60516 38700.00000 0 1952068.893 -13465040.189 21581079.222 10 0 60516 39600.00000 0 3643371.537 -11324671.426 22565523.623 10 0 60516 40500.00000 0 5556554.166 -9249747.686 23111808.621 10 0 60516 41400.00000 0 7650217.525 -7298074.650 23209195.408 10 0 60516 42300.00000 0 9873127.399 -5519524.520 22855655.336 10 0 60516 43200.00000 0 12166156.834 -3954114.648 22057919.793 10 0 60516 44100.00000 0 14464574.960 -2630511.625 20831360.442 10 0 60516 45000.00000 0 16700588.174 -1565023.241 19199701.224 10 0 60516 45900.00000 0 18806028.466 -761120.453 17194566.691 10 0 60516 46800.00000 0 20715077.001 -209509.286 14854874.502 10 0 60516 47700.00000 0 22366908.953 111250.492 12226083.057 10 0 60516 48600.00000 0 23708148.450 233606.349 9359308.393 10 0 60516 49500.00000 0 24695030.003 199402.184 6310327.277 10 0 60516 50400.00000 0 25295174.832 57864.581 3138486.128 10 0 60516 51300.00000 0 25488906.660 -136727.596 -94462.402 10 0 60516 52200.00000 0 25270050.960 -327590.332 -3325571.640 10 0 60516 53100.00000 0 24646183.700 -458088.909 -6491937.106 10 0 60516 54000.00000 0 23638319.065 -474385.640 -9531931.379 10 0 60516 54900.00000 0 22280049.712 -327967.225 -12386412.376 10 0 60516 55800.00000 0 20616176.393 22056.664 -14999880.444 10 0 60516 56700.00000 0 18700885.455 606981.924 -17321561.013 10 0 60516 57600.00000 0 16595551.763 1446949.833 -19306391.425 10 0 60516 58500.00000 0 14366260.074 2549864.519 -20915892.773 10 0 60516 59400.00000 0 12081149.389 3910833.970 -22118910.288 10 0 60516 60300.00000 0 9807691.657 5512158.228 -22892208.715 10 0 60516 61200.00000 0 7610018.407 7323865.286 -23220912.086 10 0 60516 62100.00000 0 5546406.259 9304772.255 -23098780.541 10 0 60516 63000.00000 0 3667025.067 11404027.547 -22528319.911 10 0 60516 63900.00000 0 2012041.119 13563069.884 -21520722.906 10 0 60516 64800.00000 0 610152.634 15717922.766 -20095643.824 10 0 60516 65700.00000 0 -522383.304 17801729.328 -18280811.584 10 0 60516 66600.00000 0 -1382193.763 19747422.554 -16111488.818 10 0 60516 67500.00000 0 -1978686.311 21490420.327 -13629787.416 10 0 60516 68400.00000 0 -2333404.759 22971233.728 -10883853.514 10 0 60516 69300.00000 0 -2478872.673 24137880.491 -7926937.326 10 0 60516 70200.00000 0 -2456974.340 24948003.519 -4816365.368 10 0 60516 71100.00000 0 -2316942.007 25370606.475 -1612434.491 10 0 60516 72000.00000 0 -2113034.617 25387334.210 1622751.262 10 0 60516 72900.00000 0 -1902006.109 24993244.635 4826478.803 10 0 60516 73800.00000 0 -1740470.187 24197039.687 7936636.303 10 0 60516 74700.00000 0 -1682272.773 23020745.483 10892912.400 10 0 60516 75600.00000 0 -1775983.126 21498854.646 13637961.362 10 0 60516 76500.00000 0 -2062609.661 19676966.086 16118511.872 10 0 60516 77400.00000 0 -2573637.232 17609978.406 18286398.182 10 0 60516 78300.00000 0 -3329469.214 15359911.627 20099493.903 10 0 60516 79200.00000 0 -4338341.000 12993447.270 21522530.599 10 0 60516 80100.00000 0 -5595751.877 10579288.573 22527785.413 10 0 60516 81000.00000 0 -7084440.745 8185450.043 23095624.484 10 0 60516 81900.00000 0 -8774908.545 5876588.514 23214891.470 10 0 60516 82800.00000 0 -10626467.426 3711486.277 22883133.271 10 0 60516 83700.00000 0 -12588774.670 1740790.653 22106658.071 10 0 60516 84600.00000 0 -14603788.969 5103.845 20900423.739 10 0 60516 85500.00000 0 -16608068.717 -1466497.433 19287757.878 99